Regional Weather Roundup
Issued by NWS Spokane, WA

Home | Current Version | Previous Version | Text Only | Print | Product List | Glossary On
Versions: 1 2 3 4 5 6 7 8 9 10 11 12 13 14 15 16 17 18 19 20 21 22 23 24 25 26 27 28 29 30 31 32 33 34 35 36 37 38 39 40 41 42 43 44 45 46 47 48 49 50
000
NZUS01 KOTX 040210
RWROTX
EASTERN WASHINGTON/NORTHERN IDAHO ROUNDUP
NATIONAL WEATHER SERVICE, SPOKANE WA
700 PM PDT THU SEP 03 2015

Note: "fair" indicated few or no clouds below 12,000 feet with no
significant weather and/or obstructions to visibility.

...NORTHEAST WASHINGTON AND NORTHERN IDAHO PANHANDLE...

CITY           SKY/WX    TMP DP  RH WIND       PRES   REMARKS
SPOKANE INTL   PTCLDY    62  26  25 SW10      29.92S
SPOKANE DOWNTO PTCLDY    65  29  25 S7        29.92S
COEUR D ALENE  CLEAR     61  30  31 SW7       29.92S
DEER PARK      MOCLDY    62  29  28 S9        29.92R
SANDPOINT      CLEAR     61  34  36 CALM      29.91S
BONNERS FERRY  FAIR      59  36  41 SW3       29.91S

...SOUTHEAST WASHINGTON AND SOUTHERN IDAHO PANHANDLE...

CITY           SKY/WX    TMP DP  RH WIND       PRES   REMARKS
WALLA WALLA    CLEAR     67  30  25 W6        29.91S
PULLMAN/MOSCOW CLOUDY    59  39  47 S9        29.96S
LEWISTON       MOCLDY    63  40  42 NE3       29.93S
LOWELL           N/A     55  52  89 CALM      29.97F

...COLUMBIA BASIN...

CITY           SKY/WX    TMP DP  RH WIND       PRES   REMARKS
EPHRATA        CLEAR     68  30  24 S7        29.87S
MOSES LAKE     CLEAR     68  30  24 SW9       29.88F
TRI CITIES     CLEAR     71  32  23 W3        29.88F
HERMISTON      CLEAR     70  26  19 W5        29.88S
PENDLETON      CLEAR     65  24  21 NW8       29.90F

...EAST SLOPES CASCADES...

CITY           SKY/WX    TMP DP  RH WIND       PRES   REMARKS
THE DALLES     CLEAR     65  42  43 NW18G25   29.93R
YAKIMA         MOCLDY    68  34  28 CALM      29.89R
ELLENSBURG     LGT RAIN  58  40  51 NW21G31   29.93R
WENATCHEE      CLEAR     67  34  29 W7        29.89R
OMAK           PTCLDY    66  25  21 SW7       29.86S

...SOUTHERN BRITISH COLUMBIA...

CITY           SKY/WX    TMP DP  RH WIND       PRES   REMARKS
PENTICTON      PTCLDY    61  34  36 N10       29.89R
CASTLEGAR      MOCLDY    57  41  54 N6        29.93R

...WESTERN MONTANA...

CITY           SKY/WX    TMP DP  RH WIND       PRES   REMARKS
MISSOULA       MOCLDY    52  46  80 E5        29.99R

...NEIGHBORING CITIES...

CITY           SKY/WX    TMP DP  RH WIND       PRES   REMARKS
SEATTLE        MOCLDY    62  45  53 W9        29.99S
CALGARY        MOCLDY    48  45  87 NE10      29.95R



USA.gov is the U.S. government's official web portal to all federal, state and local government web resources and services.